Flag for Switzerland Weather past 2 weeks in Grenchen, Solothurn, Switzerland

Now
60 °F

Cool.


Feels Like: 60 °F
Forecast: 53 / 72 °F
Wind: 1 mph from Northeast

Location: Grenchen

Current Time: Aug 28, 2014 at 9:46:12 AM

Latest Report: Aug 28, 2014 at 9:00 AM


Visibility: N/A

Pressure: 30.09 "Hg

Humidity: 86%

Dew point: 56 °F

Location of GrenchenLocation

Historic Weather in Grenchen — Graph

°F

Grenchen temperature yesterday

Maximum temperature yesterday: 70 °F (at 4:00 PM)
Minimum temperature yesterday: 57 °F (at 6:00 AM)
Average temperature yesterday: 63 °F

Past Weeks' High & Low Weather Summary

 TemperatureHumidityPressure
High74 °F (Aug 18, 3:00 PM)100% (Aug 17, 6:00 AM)30.24 "Hg (Aug 17, 6:00 AM)
Low47 °F (Aug 17, 7:00 AM)41% (Aug 21, 3:00 PM)29.69 "Hg (Aug 13, 9:00 AM)
Average59 °F76%30.01 "Hg
* Reported Aug 13 8:00 AM — Aug 28 8:00 AM, Grenchen, Weather by CustomWeather, © 2014

Note: Actual official high and low records may vary slightly from our data, if they occured in-between our weather recording intervals... More about our weather records

Advertising

Grenchen weather history for previous 24 hours

 ConditionsComfort  
Time TempWeatherWind HumidityBarometerVisibility
8:00 AM
Aug 28
56 °FCool.1 mph98%30.09 "HgN/A
7:00 AM54 °FCool.1 mph98%30.10 "HgN/A
6:00 AM56 °FCool.1 mph95%30.08 "HgN/A
5:00 AM57 °FCool.1 mph96%30.08 "HgN/A
4:00 AM58 °FCool.1 mph94%30.07 "HgN/A
3:00 AM58 °FCool.1 mph95%30.08 "HgN/A
2:00 AM58 °FCool.1 mph90%30.08 "HgN/A
1:00 AM58 °FCool.1 mph94%30.08 "HgN/A
12:00 AM58 °FCool.1 mph91%30.06 "HgN/A
11:00 PM
Aug 27
60 °FCool.2 mph90%30.06 "HgN/A
10:00 PM60 °FCool.2 mph91%30.05 "HgN/A
9:00 PM62 °FCool.1 mph83%30.03 "HgN/A
8:00 PM65 °FMild.1 mph74%30.02 "HgN/A
7:00 PM67 °FMild.2 mph72%30.01 "HgN/A
6:00 PM70 °FMild.1 mph57%29.99 "HgN/A
5:00 PM70 °FMild.6 mph58%29.98 "HgN/A
4:00 PM70 °FMild.6 mph54%29.98 "HgN/A
3:00 PM69 °FMild.5 mph58%29.99 "HgN/A
2:00 PM68 °FMild.6 mph61%29.99 "HgN/A
1:00 PM67 °FMild.3 mph65%30.00 "HgN/A
12:00 PM66 °FMild.6 mph66%30.00 "HgN/A
11:00 AM64 °FMild.8 mph68%30.00 "HgN/A
10:00 AM63 °FMild.3 mph84%29.99 "HgN/A
9:00 AM63 °FMild.3 mph85%29.98 "HgN/A
Weather by CustomWeather, © 2014

See weather overviewHow to use our weather pages